DW9012 Weather Reports


time (UTC)temp
C
wind
direction
speed
KPH
gust
KPH
rain 1hr
cm
rain 24hr
cm
rain mn
cm
humidity
%
barometer
mb
20260507154527 12 300 11.3 17.7 0.00 0.61 0.46 66 997.5
20260507153022 11 305 4.8 12.9 0.00 0.61 0.46 69 997.7
20260507151522 11 319 6.4 14.5 0.00 0.61 0.46 70 997.7
20260507150023 10 298 6.4 12.9 0.00 0.61 0.46 75 997.7
20260507144522 9 313 8.0 14.5 0.00 0.61 0.46 78 997.9
20260507143012 9 290 4.8 16.1 0.00 0.61 0.46 77 997.8
20260507141507 8 304 9.7 20.9 0.00 0.61 0.46 80 997.8
20260507140004 7 302 8.0 14.5 0.00 0.61 0.46 83 997.9
20260507134501 7 271 8.0 17.7 0.00 0.61 0.46 83 998.1
20260507133132 7 346 11.3 17.7 0.00 0.61 0.46 85 998.2
20260507131556 7 327 11.3 17.7 0.00 0.61 0.46 85 998.3
20260507130106 7 299 9.7 16.1 0.00 0.61 0.46 88 998.6
20260507124548 6 12 3.2 11.3 0.00 0.61 0.46 91 998.6
20260507123045 6 35 6.4 12.9 0.00 0.61 0.46 91 999.0
20260507121547 6 350 6.4 14.5 0.00 0.61 0.46 92 998.9
20260507120052 5 343 8.0 16.1 0.00 0.61 0.46 93 999.3
20260507114603 5 5 4.8 12.9 0.03 0.61 0.46 94 999.4
20260507113035 5 15 6.4 14.5 0.03 0.61 0.46 95 999.4
20260507111535 5 331 8.0 12.9 0.05 0.61 0.46 95 999.7
20260507110031 5 319 3.2 8.0 0.05 0.61 0.46 95 999.8
20260507104529 5 348 0.0 6.4 0.05 0.61 0.43 95 999.9
20260507103027 5 17 3.2 6.4 0.05 0.61 0.43 95 1000.0
20260507101528 5 360 3.2 8.0 0.08 0.58 0.43 95 1000.1
20260507100024 5 339 6.4 9.7 0.13 0.58 0.43 95 1000.3
20260507094521 5 5 3.2 8.0 0.15 0.56 0.41 95 1000.4
20260507093022 5 360 1.6 6.4 0.15 0.53 0.38 95 1000.7
20260507091526 5 360 3.2 6.4 0.15 0.51 0.33 95 1000.9
20260507090023 5 327 1.6 6.4 0.13 0.46 0.30 95 1001.1
20260507084516 5 18 1.6 4.8 0.10 0.43 0.25 95 1001.0
20260507083015 5 50 1.6 6.4 0.08 0.38 0.23 95 1001.1
20260507081513 5 59 3.2 6.4 0.05 0.36 0.20 95 1001.4
20260507080011 5 36 3.2 6.4 0.05 0.33 0.18 95 1001.6
20260507074509 5 22 3.2 6.4 0.05 0.33 0.15 95 1002.1
20260507073006 5 355 1.6 6.4 0.05 0.30 0.15 95 1002.4
20260507071505 5 30 1.6 6.4 0.08 0.30 0.15 95 1002.6
20260507070008 5 59 4.8 8.0 0.05 0.28 0.13 95 1002.6
20260507064502 5 36 3.2 9.7 0.05 0.25 0.10 95 1002.8
20260507063106 5 45 1.6 6.4 0.05 0.23 0.08 95 1003.0
20260507061557 5 26 3.2 6.4 0.05 0.23 0.05 95 1003.4
20260507060056 5 65 3.2 4.8 0.05 0.23 0.05 95 1003.5
20260507054554 5 23 1.6 4.8 0.05 0.20 0.05 95 1003.5
20260507053052 5 111 1.6 4.8 0.05 0.20 0.05 95 1003.9
20260507051552 5 111 3.2 6.4 0.03 0.18 0.03 95 1003.9
20260507050050 5 101 3.2 8.0 0.00 0.15 0.00 95 1003.9
20260507044549 5 101 1.6 8.0 0.00 0.15 0.00 94 1004.2
20260507043047 5 101 3.2 8.0 0.00 0.15 0.00 94 1004.4
20260507041544 5 101 3.2 8.0 0.00 0.15 0.00 94 1004.7
20260507040043 5 79 1.6 11.3 0.00 0.15 0.00 94 1005.1
20260507034540 5 96 4.8 11.3 0.00 0.15 0.15 94 1005.2
20260507033039 5 88 8.0 12.9 0.00 0.15 0.15 94 1005.2
20260507031540 5 99 6.4 12.9 0.03 0.15 0.15 94 1005.4
20260507030038 5 115 4.8 12.9 0.03 0.15 0.15 94 1005.4
20260507024538 5 119 4.8 8.0 0.03 0.15 0.15 94 1005.6
20260507023045 5 89 1.6 12.9 0.05 0.15 0.15 94 1005.8
20260507021543 5 105 6.4 11.3 0.05 0.15 0.15 94 1005.9
20260507020057 5 98 4.8 11.3 0.08 0.15 0.15 94 1006.1
20260507014536 5 78 8.0 11.3 0.10 0.15 0.15 94 1006.4
20260507013047 5 94 3.2 9.7 0.10 0.13 0.13 94 1006.4
20260507011536 5 119 3.2 6.4 0.08 0.10 0.10 93 1006.8
20260507010036 5 102 1.6 9.7 0.05 0.05 0.05 93 1006.9
20260507004538 5 142 3.2 11.3 0.05 0.05 0.05 93 1006.7
20260507003042 5 126 6.4 9.7 0.03 0.05 0.03 92 1006.6
20260507001537 5 101 8.0 16.1 0.03 0.05 0.03 92 1006.7
20260507000035 5 91 6.4 14.5 0.03 0.05 0.03 91 1006.8
20260506234534 5 71 8.0 12.9 0.00 0.08 0.00 91 1006.8
20260506233030 5 90 8.0 14.5 0.00 0.08 0.00 90 1006.8
20260506231529 5 94 3.2 9.7 0.00 0.08 0.00 89 1006.9
20260506230029 5 130 3.2 11.3 0.00 0.08 0.00 88 1006.7
20260506224532 5 122 3.2 9.7 0.00 0.08 0.00 87 1006.8
20260506223040 6 149 4.8 11.3 0.00 0.08 0.00 86 1006.7
20260506221528 6 115 4.8 12.9 0.00 0.08 0.00 84 1006.9
20260506220028 6 135 4.8 11.3 0.00 0.08 0.00 83 1006.7
20260506214537 6 133 6.4 17.7 0.00 0.10 0.00 81 1006.6
20260506213025 6 94 8.0 14.5 0.00 0.10 0.00 78 1006.7
20260506211525 6 119 6.4 17.7 0.00 0.10 0.00 77 1006.7
20260506210027 7 132 8.0 16.1 0.00 0.10 0.00 75 1006.5
20260506204523 7 98 9.7 14.5 0.00 0.10 0.00 72 1006.5
20260506203023 7 179 8.0 14.5 0.00 0.10 0.00 69 1006.4
20260506201523 8 209 8.0 17.7 0.00 0.10 0.00 67 1006.4
20260506200022 8 212 8.0 16.1 0.00 0.10 0.00 61 1006.6
20260506194521 10 188 11.3 19.3 0.00 0.10 0.00 54 1006.6
20260506193020 10 193 6.4 11.3 0.00 0.10 0.00 53 1006.7
20260506191520 10 252 3.2 8.0 0.00 0.10 0.00 57 1006.7
20260506190020 10 315 4.8 8.0 0.00 0.10 0.00 61 1006.5
20260506184537 10 240 4.8 9.7 0.00 0.10 0.00 58 1006.8
20260506183028 9 243 3.2 9.7 0.00 0.10 0.00 55 1007.0
20260506181524 10 184 4.8 11.3 0.00 0.10 0.00 56 1006.9
20260506180017 10 215 4.8 9.7 0.00 0.10 0.00 54 1006.9
20260506174518 10 207 6.4 9.7 0.00 0.10 0.00 54 1007.0
20260506173015 10 288 4.8 11.3 0.00 0.10 0.00 58 1007.0
20260506171516 10 235 4.8 9.7 0.00 0.10 0.00 54 1006.9
20260506170012 9 258 4.8 11.3 0.00 0.10 0.00 60 1007.0
20260506164510 8 229 6.4 14.5 0.00 0.10 0.00 66 1007.2
20260506163009 8 194 6.4 11.3 0.00 0.10 0.00 68 1007.2
20260506161513 8 218 6.4 12.9 0.00 0.10 0.00 66 1007.4
20260506160009 8 275 4.8 9.7 0.00 0.10 0.00 69 1007.2